Location: Madrid
(40.4000°N, 3.6830°W)
Time: 01:08:56
(UTC+02:00)

ISS - Pass Details

Date: 18 July 2019
Orbit: 409 x 418 km, 51.6° (Epoch: 23 July)

Event Time Altitude Azimuth Distance (km) Brightness Sun altitude
Rises 06:17:10 0° 298° (WNW) 2,341 -0.2 -7.6°
Reaches altitude 10° 06:19:25 10° 287° (WNW) 1,475 -1.3 -7.3°
Maximum altitude 06:22:18 28° 225° (SW) 791 -2.9 -6.8°
Drops below altitude 10° 06:25:12 10° 164° (SSE) 1,464 -1.2 -6.4°
Sets 06:27:26 0° 152° (SSE) 2,320 0.0 -6.0°
